Location: Lake Almanor
(40.2485°N, 121.1442°W)
Time: 07:51:50
(UTC-08:00)

STARLINK-1082 - Pass Details

Date: 30 January 2020
Orbit: 348 x 351 km, 53.0° (Epoch: 18 February)

Event Time Altitude Azimuth Distance (km) Brightness Sun altitude
Rises 17:50:11 0° 319° (NW) 2,165 7.0 -6.2°
Reaches altitude 10° 17:52:41 10° 342° (NNW) 1,320 5.6 -6.6°
Maximum altitude 17:54:42 17° 25° (NNE) 1,003 4.6 -7.0°
Drops below altitude 10° 17:56:42 10° 68° (ENE) 1,317 4.9 -7.3°
Enters shadow 17:56:44 10° 68° (ENE) 1,326 4.9 -7.3°
